[[{"header":{"parameterUnit":"m.s-1","parameterCategory":1,"la1":30.2991,"la2":30.254,"lo1":-89.0895,"lo2":-89.0444,"dy":0.0017,"dx":0.0017,"nx":28,"ny":28,"refTime":"2024-09-27T03:00:00:Z","depth":0,"parameterNumber":2,"parameterNumberName":"U-component_of_WINDS"},"data":[0,0,0,0,0,0,0,0,0,0,0,0,0,0,0,0,0,0,0,0,0,0,0,0,0,0,0,0,0,0,0,0,0,0,0,0,0,0,0,0,0,0,0,0,0,0,0,0,0,0,0,0,0,0,0,0,0,0,5.668,5.6681,0,5.6744,5.6745,5.6745,5.6724,5.6723,5.6721,5.672,5.6786,5.6788,5.6791,0,0,0,0,0,0,0,0,0,0,0,0,0,5.6541,5.6543,5.668,5.6681,5.6682,5.6744,5.6745,5.6746,5.6724,5.6723,5.6721,5.6719,5.6785,5.6788,5.6792,0,0,0,0,0,0,0,0,0,0,0,0,0,5.6602,5.6544,5.668,5.6679,5.6679,5.6744,5.6745,5.6746,5.6725,5.6723,5.6721,5.6719,5.6783,5.6788,5.6792,5.6862,0,0,5.6806,5.6808,0,0,0,0,0,0,0,0,5.6599,5.6608,5.6678,5.6679,5.6679,5.6724,5.6719,5.6785,5.6725,5.6707,5.672,5.6718,5.6767,5.6773,5.6789,5.6865,5.6868,5.6807,5.6809,5.6811,5.6813,0,0,0,0,0,0,0,5.6595,5.6605,5.6705,5.6679,5.668,5.6675,5.6682,5.6732,5.6748,5.6709,5.6707,5.6715,5.6767,5.6785,5.679,5.6869,5.6806,5.681,5.6813,5.6815,5.7006,5.7008,0,0,0,0,0,0,5.659,5.6601,5.6703,5.6707,5.6633,5.6679,5.6687,5.6712,5.6747,5.6751,5.6717,5.6714,5.6778,5.6785,5.6793,5.6876,5.6811,5.6815,5.6818,5.7003,5.7006,5.7009,0,0,0,0,0,0,5.6587,5.6599,5.6701,5.6654,5.6666,5.6684,5.6712,5.6714,5.6732,5.6754,5.6756,5.6732,5.6777,5.6786,5.6845,5.6878,5.6818,5.6822,5.7001,5.7004,5.7007,5.7044,0,0,0,0,0,0,5.6583,5.6598,5.6624,5.6655,5.6669,5.6752,5.6714,5.6717,5.674,5.6737,5.6769,5.6772,5.6776,5.6838,5.6849,5.6883,5.6825,5.6998,5.7002,5.7006,5.704,5.7049,5.7056,0,0,0,0,0,5.6578,5.6632,5.6626,5.6638,5.6702,5.6754,5.6762,5.6765,5.6743,5.6769,5.6783,5.6771,5.6873,5.6844,5.6857,5.6893,5.6996,5.7001,5.7006,5.7037,5.7047,5.7056,0,0,0,0,0,0,5.6605,5.6636,5.6629,5.6695,5.6722,5.675,5.6783,5.6776,5.6809,5.6805,5.6808,5.6815,5.6876,5.689,5.6858,5.6962,5.6931,5.6939,5.695,5.696,5.6968,5.6962,5.6829,0,0,0,0,0,5.6619,5.6658,5.6683,5.6738,5.6752,5.6766,5.6788,5.6789,5.6816,5.6828,5.6846,5.6874,5.6912,5.6937,5.6974,5.7043,5.7049,5.7074,5.7082,5.7088,5.7094,5.7132,5.7143,5.7026,5.7026,5.7026,0,0,5.6647,5.6669,5.6693,5.6744,5.6765,5.6805,5.6775,5.6819,5.6849,5.6834,5.689,5.6905,5.6937,5.7001,5.703,5.7015,5.7129,5.7095,5.71,5.7103,5.7139,5.715,5.716,5.703,5.7029,5.7028,0,0,5.6718,5.6739,5.6788,5.681,5.6842,5.6851,5.6863,5.6893,5.6902,5.6959,5.6948,5.6985,5.7051,5.7074,5.7094,5.7177,5.7166,5.7189,5.7229,5.7266,5.7275,5.7283,5.7312,5.7322,5.7195,5.7195,5.7195,0,5.6749,5.6809,5.6813,5.6858,5.6881,5.6871,5.692,5.6941,5.6984,5.7,5.6983,5.7066,5.7086,5.7156,5.7176,5.7193,5.7206,5.7184,5.7273,5.7282,5.7289,5.7317,5.7328,5.7198,5.7198,5.7197,5.7197,0,5.6846,5.6888,5.6923,5.6965,5.6992,5.7039,5.705,5.7077,5.7076,5.7087,5.7146,5.717,5.7211,5.7228,5.7228,5.7298,5.7288,5.7272,5.724,5.7303,5.7328,5.7339,5.7201,5.72,5.72,5.7199,0,0,5.6933,5.6978,5.6991,5.701,5.7046,5.7079,5.7126,5.7166,5.7189,5.722,5.7259,5.7317,5.7303,5.7326,5.7328,5.736,5.7424,5.7341,5.7342,5.7354,5.7503,5.7513,5.7525,5.7418,5.742,5.7422,5.75,0,5.7007,5.7089,5.7095,5.7169,5.7208,5.72,5.7241,5.7268,5.728,5.7315,5.7329,5.7369,5.7348,5.7362,5.7394,5.7409,5.7453,5.7404,5.7454,5.7456,5.7444,5.7539,5.7549,5.7621,5.751,5.7512,5.7513,0,5.7104,5.7137,5.7215,5.7247,5.7263,5.73,5.7338,5.7372,5.7403,5.741,5.7436,5.7434,5.7483,5.7451,5.7518,5.7485,5.7506,5.7517,5.752,5.7523,5.7487,5.7543,5.7645,5.7655,5.7529,5.7528,5.7527,0,5.7159,5.7224,5.7279,5.7296,5.7334,5.736,5.7377,5.7406,5.743,5.7464,5.748,5.7519,5.754,5.7571,5.758,5.7556,5.7647,5.7616,5.7653,5.7653,5.7671,5.7669,5.7776,5.7688,5.7688,5.7687,5.7687,0,5.7239,5.7287,5.7304,5.7338,5.7392,5.7399,5.7452,5.7467,5.7493,5.753,5.7526,5.7561,5.7571,5.7608,5.7616,5.767,5.768,5.7686,5.7687,5.7686,5.7685,5.7698,5.7693,5.769,5.769,5.7689,5.7688,0,5.7309,5.7322,5.7382,5.7413,5.7423,5.7461,5.7488,5.7521,5.7533,5.758,5.7591,5.7611,5.7654,5.7667,5.7719,5.7724,5.7787,5.7784,5.7776,5.7776,5.7812,5.7808,5.7929,5.7945,5.7848,5.7849,5.785,0,5.7358,5.7395,5.7431,5.7456,5.7474,5.7513,5.7539,5.7548,5.7574,5.7613,5.7641,5.7684,5.7718,5.7788,5.7807,5.7847,5.7844,5.7884,5.785,5.7847,5.7843,5.784,5.7843,5.789,5.7891,5.7891,5.7892,0,5.7445,5.745,5.7486,5.7526,5.7556,5.7587,5.7618,5.7638,5.7651,5.7682,5.7726,5.7753,5.7806,5.7849,5.789,5.7908,5.7902,5.7903,5.7914,5.7911,5.7904,5.7907,5.7792,5.79,5.7899,5.7898,5.7898,5.7898,5.7505,5.7537,5.7568,5.7609,5.7633,5.7661,5.7693,5.7711,5.7748,5.7792,5.7795,5.7843,5.7874,5.7928,5.7949,5.7987,5.7975,5.799,5.7994,5.7997,5.7999,5.79,5.7994,5.7994,5.7994,5.7994,5.7994,0,5.759,5.761,5.7647,5.769,5.7722,5.7716,5.7749,5.7777,5.7819,5.7848,5.7883,5.7934,5.7975,5.7998,5.804,5.8066,5.8064,5.8076,5.8073,5.8078,5.8008,5.7994,5.8077,5.8077,5.8077,5.8077,5.8077,5.8077,5.7638,5.7692,5.7701,5.7767,5.7787,5.7834,5.7853,5.788,5.7903,5.7961,5.7995,5.801,5.8037,5.8081,5.8119,5.8125,5.814,5.8153,5.8157,5.8091,5.8083,5.8074,5.8061,5.8157,5.8157,5.8223,5.8224,5.8224]},{"header":{"parameterUnit":"m.s-1","parameterCategory":1,"la1":30.2991,"la2":30.254,"lo1":-89.0895,"lo2":-89.0444,"dy":0.0017,"dx":0.0017,"nx":28,"ny":28,"refTime":"2024-09-27T03:00:00:Z","depth":0,"parameterNumber":3,"parameterNumberName":"V-component_of_WINDS"},"data":[0,0,0,0,0,0,0,0,0,0,0,0,0,0,0,0,0,0,0,0,0,0,0,0,0,0,0,0,0,0,0,0,0,0,0,0,0,0,0,0,0,0,0,0,0,0,0,0,0,0,0,0,0,0,0,0,0,0,4.002,4.0022,0,4.0147,4.0149,4.015,4.0182,4.0181,4.0181,4.018,4.0308,4.0312,4.0316,0,0,0,0,0,0,0,0,0,0,0,0,0,3.9803,3.9807,4.002,4.0022,4.0023,4.0147,4.0149,4.015,4.0182,4.0181,4.018,4.0179,4.0306,4.0311,4.0316,0,0,0,0,0,0,0,0,0,0,0,0,0,3.991,3.9808,4.002,4.0054,4.0059,4.0147,4.0149,4.0151,4.0183,4.0181,4.018,4.0179,4.0305,4.0311,4.0317,4.0379,0,0,4.0336,4.0339,0,0,0,0,0,0,0,0,3.9904,3.9918,4.0048,4.0052,4.0057,4.0148,4.0119,4.0227,4.0183,4.0135,4.018,4.0178,4.0255,4.0265,4.0292,4.0385,4.0391,4.0336,4.034,4.0343,4.0345,0,0,0,0,0,0,0,3.9897,3.9913,4.007,4.0049,4.0055,4.0063,4.0076,4.014,4.02,4.0139,4.0142,4.0157,4.0258,4.0286,4.0295,4.0393,4.0336,4.0342,4.0346,4.0348,4.0543,4.0544,0,0,0,0,0,0,3.9884,3.9907,4.0066,4.0074,3.9976,4.0067,4.0083,4.012,4.02,4.0211,4.0158,4.0158,4.0276,4.0288,4.03,4.0378,4.0343,4.0349,4.0352,4.0541,4.0543,4.0545,0,0,0,0,0,0,3.9879,3.9898,4.0061,3.9991,4.0013,4.0072,4.0113,4.0123,4.0151,4.0214,4.0224,4.0175,4.0275,4.0291,4.0359,4.0382,4.0351,4.0357,4.054,4.0542,4.0544,4.0534,0,0,0,0,0,0,3.9873,3.9896,3.992,3.9992,4.0016,4.0119,4.0115,4.0126,4.0162,4.0163,4.0233,4.0244,4.0276,4.035,4.0365,4.039,4.0362,4.0538,4.0541,4.0543,4.0532,4.0535,4.0538,0,0,0,0,0,3.9865,3.9912,3.9922,3.9941,4.0049,4.012,4.0134,4.0171,4.0164,4.0189,4.0229,4.0241,4.0378,4.0357,4.0374,4.0402,4.0537,4.054,4.0543,4.0531,4.0535,4.0538,0,0,0,0,0,0,3.9841,3.9922,3.9933,4.0005,4.0056,4.0126,4.0158,4.0174,4.0227,4.0226,4.0268,4.0284,4.0349,4.0382,4.0357,4.0466,4.0457,4.0464,4.0442,4.0446,4.0449,4.0439,4.0367,0,0,0,0,0,3.9845,3.9897,3.9965,4.0022,4.0046,4.0098,4.0131,4.0155,4.0208,4.023,4.0275,4.0326,4.038,4.0415,4.0468,4.0538,4.0553,4.0565,4.0568,4.057,4.0575,4.0614,4.062,4.0555,4.0555,4.0555,0,0,3.9852,3.9903,3.9933,4.0018,4.006,4.0113,4.0116,4.0171,4.0211,4.0238,4.0305,4.034,4.04,4.0469,4.0501,4.0498,4.0597,4.0574,4.0575,4.058,4.0618,4.0624,4.0629,4.0558,4.0557,4.0557,0,0,3.9892,3.9936,3.9988,4.003,4.0094,4.0128,4.014,4.0208,4.0233,4.0301,4.0323,4.037,4.0462,4.0504,4.0537,4.0593,4.0606,4.0609,4.0624,4.0661,4.0666,4.0671,4.069,4.0697,4.0615,4.0615,4.0615,0,3.9892,3.9973,4.0013,4.0067,4.0104,4.0132,4.0185,4.0223,4.0301,4.0325,4.0321,4.0438,4.0481,4.0559,4.0573,4.0599,4.0614,4.0601,4.0662,4.0668,4.0673,4.0691,4.0699,4.0615,4.0615,4.0615,4.0615,0,3.9971,4.0026,4.0061,4.0136,4.0176,4.023,4.0276,4.0313,4.0333,4.0367,4.0436,4.0488,4.0552,4.0573,4.0593,4.0655,4.0651,4.0654,4.0646,4.0678,4.0696,4.0704,4.0614,4.0614,4.0615,4.0615,0,0,3.9999,4.0095,4.0107,4.0142,4.0214,4.0258,4.0312,4.0376,4.0406,4.0458,4.0505,4.0583,4.0586,4.0624,4.0649,4.0682,4.0722,4.0681,4.0683,4.0686,4.0793,4.0789,4.0797,4.0732,4.0733,4.0735,4.0788,0,4.0047,4.0146,4.0183,4.0264,4.0316,4.0343,4.0391,4.044,4.0473,4.0521,4.0558,4.0613,4.0614,4.0637,4.067,4.071,4.0744,4.0707,4.0774,4.0776,4.0758,4.0807,4.0804,4.0851,4.0795,4.0796,4.0797,0,4.0117,4.0171,4.0257,4.0323,4.0346,4.0388,4.045,4.0496,4.0552,4.0574,4.0616,4.064,4.0697,4.0686,4.0765,4.0739,4.0769,4.0792,4.0795,4.0802,4.0788,4.0815,4.0867,4.0874,4.0809,4.0808,4.0807,0,4.0128,4.0222,4.0286,4.0315,4.0394,4.0422,4.0457,4.0512,4.0548,4.0601,4.0625,4.0684,4.0716,4.0761,4.0799,4.0787,4.0875,4.0867,4.0894,4.0893,4.0911,4.0909,4.0968,4.0931,4.0931,4.093,4.093,0,4.0177,4.0229,4.0292,4.0331,4.0389,4.0431,4.0487,4.0523,4.0572,4.0618,4.0646,4.0688,4.0736,4.0785,4.0815,4.0876,4.089,4.0909,4.0917,4.0907,4.0904,4.0926,4.0924,4.0932,4.0932,4.0932,4.0931,0,4.0199,4.0243,4.0315,4.0384,4.0403,4.0443,4.0502,4.054,4.0575,4.0633,4.0649,4.0704,4.0763,4.0805,4.0881,4.0901,4.0966,4.0974,4.0947,4.0951,4.0975,4.0972,4.105,4.1063,4.1017,4.1018,4.1018,0,4.0227,4.0268,4.0342,4.0375,4.0409,4.0462,4.0499,4.0542,4.0579,4.0647,4.0677,4.0738,4.0789,4.0881,4.0927,4.0985,4.0994,4.1017,4.1002,4.0991,4.0993,4.099,4.0994,4.1019,4.1019,4.1019,4.1019,0,4.0272,4.0293,4.0346,4.0406,4.045,4.05,4.0549,4.0575,4.0626,4.0667,4.0728,4.0767,4.0845,4.0904,4.0967,4.1001,4.1019,4.1024,4.1033,4.1023,4.1006,4.1015,4.0952,4.1022,4.1021,4.1021,4.1021,4.1021,4.0298,4.0335,4.0393,4.0451,4.0493,4.054,4.0579,4.062,4.0671,4.0738,4.076,4.0823,4.0878,4.0964,4.1,4.1049,4.1048,4.1062,4.1065,4.1067,4.1067,4.0998,4.106,4.106,4.106,4.106,4.106,0,4.0344,4.0383,4.0436,4.0506,4.0551,4.0565,4.0621,4.0658,4.0713,4.0763,4.0813,4.0882,4.0941,4.0992,4.1052,4.1081,4.1091,4.1096,4.1094,4.1101,4.1064,4.105,4.1087,4.1087,4.1087,4.1087,4.1087,4.1087,4.0373,4.0437,4.0464,4.0549,4.0587,4.0649,4.068,4.0723,4.0763,4.084,4.0889,4.0922,4.0973,4.1037,4.1091,4.1104,4.1125,4.1128,4.1143,4.1107,4.1104,4.1101,4.1087,4.1132,4.1132,4.1176,4.1176,4.1177]}]]